This is the latest recevied weather packets stored in our database for station/object K9NZF-2. If no packets are shown the sender has not sent any weather packets the latest 1 day(s).
| Time | Temp. | Humidity | Pressure | Rain* | Wind** | Luminosity | Snow |
|---|---|---|---|---|---|---|---|
| 1777970582 | 12.78° C | 93% | 968.5 hPa | 3.3 mm | 2.68 m/s, 222° | - | - |
| 1777970523 | 12.78° C | 93% | 968.4 hPa | 3.3 mm | 2.24 m/s, 199° | - | - |
| 1777970461 | 12.78° C | 93% | 968.4 hPa | 3.56 mm | 2.24 m/s, 208° | - | - |
| 1777970402 | 12.78° C | 93% | 968.5 hPa | 3.56 mm | 2.24 m/s, 215° | - | - |
| 1777970344 | 12.78° C | 92% | 968.5 hPa | 3.56 mm | 1.79 m/s, 211° | - | - |
| 1777970286 | 12.78° C | 92% | 968.5 hPa | 3.81 mm | 1.79 m/s, 187° | - | - |
| 1777970223 | 12.78° C | 92% | 968.5 hPa | 3.81 mm | 1.79 m/s, 203° | - | - |
| 1777970163 | 12.78° C | 92% | 968.5 hPa | 3.81 mm | 1.34 m/s, 224° | - | - |
| 1777970102 | 12.78° C | 92% | 968.5 hPa | 4.06 mm | 1.34 m/s, 153° | - | - |
| 1777970045 | 12.78° C | 92% | 968.6 hPa | 4.32 mm | 1.34 m/s, 181° | - | - |
| 1777969983 | 12.78° C | 92% | 968.7 hPa | 4.32 mm | 1.34 m/s, 163° | - | - |
| 1777969922 | 12.78° C | 92% | 968.8 hPa | 4.32 mm | 1.34 m/s, 185° | - | - |
| 1777969860 | 12.78° C | 92% | 968.9 hPa | 4.32 mm | 0.89 m/s, 181° | - | - |
| 1777969803 | 12.78° C | 92% | 968.9 hPa | 4.32 mm | 0.89 m/s, 188° | - | - |
| 1777969741 | 12.78° C | 92% | 969.1 hPa | 4.32 mm | 0.89 m/s, 180° | - | - |
| 1777969682 | 12.78° C | 92% | 969.2 hPa | 4.32 mm | 0.89 m/s, 169° | - | - |
| 1777969623 | 12.78° C | 92% | 969.3 hPa | 4.57 mm | 0.89 m/s, 214° | - | - |
| 1777969563 | 12.78° C | 92% | 969.3 hPa | 4.32 mm | 0.89 m/s, 198° | - | - |
| 1777969502 | 12.78° C | 92% | 969.3 hPa | 4.32 mm | 0.89 m/s, 221° | - | - |
| 1777969445 | 12.78° C | 92% | 969.4 hPa | 4.32 mm | 0.89 m/s, 179° | - | - |
| 1777969383 | 12.78° C | 92% | 969.5 hPa | 4.57 mm | 1.34 m/s, 231° | - | - |
| 1777969325 | 12.78° C | 93% | 969.5 hPa | 4.57 mm | 1.34 m/s, 258° | - | - |
| 1777969263 | 12.78° C | 93% | 969.5 hPa | 4.57 mm | 1.34 m/s, 241° | - | - |
| 1777969202 | 12.78° C | 93% | 969.5 hPa | 4.57 mm | 1.34 m/s, 271° | - | - |
| 1777969143 | 12.78° C | 93% | 969.5 hPa | 4.57 mm | 1.34 m/s, 237° | - | - |
* Rain latest hour (hover to see other rain measurements)
** Current wind speed in m/s (hover to see current wind gust speed)